CZ-6A DEB, 54442

Orbit data source: Space-Track

CZ-6A DEB, 54442 is space debris in SSO originally from a launch on Fri, 11 Nov 2022 UTC launched from the Taiyaun Space Center, China (TSC). Debris objects in space refer to the collection of defunct objects orbiting the Earth. Examples of debris include non-operational satellites, rocket bodies, and fragments generated from explosions, collisions, or faulty payload assembly.

Loading next visibility...
Identifier
54442, 2022-151FS
Orbit
SSO
Country
Flag of CNCN / PRC
Related business
Manufacturer
SAST
Mission
Spacecraft
Bus & Motor
Unknown
Mass
Unknown
Launch date (UTC)
2022-11-11 (4 years ago)
Launch vehicle
Unknown
Launch site
Taiyaun Space Center, China (TSC)
Object type
Payload
Rocket body
Debris
Shape & HBR
Unknown shape, 0.5 m
Radar Cross Section
Medium (>0.1 m² and <1 m²)

Expand to show TLE details & history
Last TLE update: 10 hours ago

TLE from 10 hours ago
0 CZ-6A DEB
1 54442U 22151FS  26236.19344829  .00000066  00000-0  71018-4 0  9992
2 54442  98.8716 209.3016 0105331 228.8962 130.3072 14.00076685192893
Epoch: 2026-08-24T04:38Z
TLE epoch observation values (Epoch: 2026-08-24T04:38:33.932Z)
Latitude
-0.00002°
Longitude
167.18156°
Altitude
946.433 km
Speed
7.353 km/s
True Right ascension
13h 57m 12s
True Declination
0° 00' 00"
Sunlit
Object was in daylight at epoch
Visualization orbit readout
Latitude
Unknown
Longitude
Unknown
Altitude
Unknown
Speed
Unknown
Apparent Right ascension
Unknown
Apparent Declination
Unknown
Sunlit
N/A
Visualization observer readout
Local Sidereal Time
05:49:51
Azimuth
Unknown
Elevation
Unknown
Doppler factor
Unknown
Orbital elements
Apogee altitude
967.286 km
Perigee altitude
814.159 km
Semi-major axis
7,268.859 km
Eccentricity
0.01053
Inclination
98.8716°
RAAN
209.3016°
Arg. of periapsis
228.8962°
True anomaly
131.21983°
Mean anomaly
130.3072°
Eccentric anomaly
130.76429°
Mean motion
3.50222 °/min
Orbital period
102.79 mins
BSTAR
0.000071018
Loading maneuver chart data...
Computing Atmospheric mass density...
Loading historical data...
Loading historical data...
Loading historical data...
Loading historical data...
Loading historical data...
Loading historical data...
Loading historical data...

Documentation

Showing up to 5 results
|